McCook, NE

5:21 PM CST on December 14, 2017 (GMT -0600)
McCook Municipal

Weather History for KMCK - March, 2012

Change the Weather History Date:

Monday, March 5, 2012

  Actual Average Record
Temperature  
Mean Temperature 52 °F 36 °F  
Max Temperature 74 °F 50 °F 82 °F (1910)
Min Temperature 29 °F 22 °F -6 °F (1989)
Degree Days  
Heating Degree Days 14    
Growing Degree Days 2 (Base 50)    
Moisture  
Dew Point 23 °F    
Average Humidity 46    
Maximum Humidity 79    
Minimum Humidity 12    
Precipitation  
Precipitation 0.00 in 0.03 in 0.89 in (1983)
Month to date precipitation 0.00 0.17  
Year to date precipitation 0.37 1.30  
Sea Level Pressure  
Sea Level Pressure 29.99 in    
Wind  
Wind Speed 9 mph (SSW)    
Max Wind Speed 20 mph    
Max Gust Speed 25 mph    
Visibility 10 miles    
Events      
T = Trace of Precipitation, MM = Missing Value Source: NWS Daily Summary

Daily Weather History Graph

Daily Weather History Graph

Search for Another Location

Airport or City:

Trip Planner

Search our weather history database for the weather conditions in past years. The results will help you decide how hot, cold, wet, or windy it might be!

Date:

Astronomy

Mar. 05, 2012 Rise Set
Actual Time 7:08 AM CST 6:39 PM CST
Civil Twilight 6:41 AM CST 7:06 PM CST
Nautical Twilight 6:10 AM CST 7:37 PM CST
Astronomical Twilight 5:38 AM CST 8:09 PM CST
Moon 3:59 PM CST (3/5) 5:09 AM CST (3/5)
Length of Visible Light 12h 24m
Length of Day
11h 30m
Waxing Gibbous, 91% of the Moon is Illuminated
Mar 5
Waxing Gibbous
Mar 8
Full
Mar 14
Last Quarter
Mar 22
New
Mar 30
First Quarter

Hourly Weather History & Observations

Time (CST) Temp. Windchill Dew Point Humidity Pressure Visibility Wind Dir Wind Speed Gust Speed Precip Events Conditions
12:53 AM 34.0 °F 28.8 °F 25.0 °F 70% 30.21 in 10.0 mi SSE 5.8 mph - N/A   Unknown
1:53 AM 30.9 °F 24.3 °F 24.1 °F 76% 30.21 in 10.0 mi South 6.9 mph - N/A   Unknown
2:53 AM 30.0 °F 22.4 °F 24.1 °F 79% 30.20 in 10.0 mi South 8.1 mph - N/A   Unknown
3:53 AM 32.0 °F 22.5 °F 25.0 °F 75% 30.18 in 10.0 mi SSW 12.7 mph 20.7 mph N/A   Unknown
4:53 AM 30.0 °F 20.5 °F 24.1 °F 79% 30.17 in 10.0 mi South 11.5 mph - N/A   Unknown
5:53 AM 32.0 °F 20.5 °F 25.0 °F 75% 30.15 in 10.0 mi South 18.4 mph 23.0 mph N/A   Unknown
6:53 AM 30.0 °F 20.5 °F 24.1 °F 79% 30.17 in 10.0 mi SSW 11.5 mph - N/A   Unknown
7:53 AM 30.9 °F 27.5 °F 24.1 °F 76% 30.18 in 10.0 mi South 3.5 mph - N/A   Unknown
8:53 AM 37.0 °F 29.3 °F 26.1 °F 65% 30.17 in 10.0 mi South 11.5 mph - N/A   Unknown
9:53 AM 44.1 °F 37.1 °F 28.0 °F 53% 30.14 in 10.0 mi South 15.0 mph 19.6 mph N/A   Unknown
10:53 AM 50.0 °F - 28.9 °F 44% 30.08 in 10.0 mi SSW 19.6 mph 25.3 mph N/A   Unknown
11:53 AM 55.0 °F - 28.9 °F 37% 30.04 in 10.0 mi SSW 16.1 mph 21.9 mph N/A   Unknown
12:53 PM 61.0 °F - 28.9 °F 30% 29.99 in 10.0 mi SSW 12.7 mph 20.7 mph N/A   Unknown
1:53 PM 66.0 °F - 28.0 °F 24% 29.93 in 10.0 mi South 10.4 mph 20.7 mph N/A   Clear
2:53 PM 71.1 °F - 26.1 °F 19% 29.88 in 10.0 mi South 10.4 mph 18.4 mph N/A   Clear
3:53 PM 73.0 °F - 21.0 °F 14% 29.84 in 10.0 mi South 10.4 mph - N/A   Clear
4:53 PM 73.0 °F - 18.0 °F 12% 29.80 in 10.0 mi South 12.7 mph 17.3 mph N/A   Clear
5:53 PM 70.0 °F - 18.0 °F 14% 29.78 in 10.0 mi SE 3.5 mph - N/A   Clear
6:53 PM 64.0 °F - 18.0 °F 17% 29.77 in 10.0 mi East 5.8 mph - N/A   Clear
7:53 PM 61.0 °F - 19.0 °F 20% 29.77 in 10.0 mi Calm Calm - N/A   Clear
8:53 PM 52.0 °F - 19.0 °F 27% 29.76 in 10.0 mi SW 6.9 mph - N/A   Clear
9:53 PM 44.1 °F 38.6 °F 19.9 °F 38% 29.78 in 10.0 mi WSW 10.4 mph - N/A   Clear
10:53 PM 45.0 °F 40.1 °F 19.0 °F 36% 29.76 in 10.0 mi West 9.2 mph - N/A   Clear
11:53 PM 41.0 °F 36.4 °F 19.0 °F 41% 29.75 in 10.0 mi West 6.9 mph - N/A   Clear